Home   Weather   Kowloon   Past weeks
Flag for Hong Kong

Past Weather in Kowloon, Hong Kong — Yesterday and Last 2 Weeks

Now
64 °F

Light rain. Fog.


Feels Like: 64 °F
Forecast: 71 / 64 °F
Wind: 18 mph from Northwest

Location: National Airport

Current Time: Mar 23, 2019 at 6:59:30 pm

Latest Report: Mar 23, 2019 at 6:30 pm


Visibility: 2 mi

Pressure: 30.04 "Hg

Humidity: 94%

Dew Point: 63 °F

Location of KowloonLocation

Past Weather in Kowloon — Graph

°F

Kowloon Temperature Yesterday

Maximum temperature yesterday: 82 °F (at 3:00 pm)
Minimum temperature yesterday: 75 °F (at 6:30 am)
Average temperature yesterday: 79 °F

High & Low Weather Summary for the Past Weeks

 TemperatureHumidityPressure
High82 °F (Mar 19, 1:00 pm)100% (Mar 23, 6:00 pm)30.21 "Hg (Mar 23, 6:00 pm)
Low59 °F (Mar 11, 5:00 am)31% (Mar 16, 12:30 pm)29.80 "Hg (Mar 9, 3:00 pm)
Average71 °F76%29.99 "Hg
* Reported Mar 8 6:00 pm — Mar 23 6:00 pm, Kowloon. Weather by CustomWeather, © 2019

Note: Actual official high and low records may vary slightly from our data, if they occured in-between our weather recording intervals... More about our weather records

Advertising

Kowloon Weather History for the Previous 24 Hours

Scroll right to see more
 ConditionsComfort  
Time TempWeatherWind HumidityBarometerVisibility
6:00 pm
Sat, Mar 23
64 °FLight rain. Fog.15 mph100%30.04 "Hg2 mi
5:30 pm66 °FLight rain. Fog.9 mph94%30.01 "Hg2 mi
5:00 pm66 °FLight rain. Fog.2 mph94%30.01 "Hg3 mi
4:30 pm66 °FLight rain. Fog.7 mph94%30.01 "Hg2 mi
4:00 pm68 °FLight rain. Fog.12 mph88%30.01 "Hg3 mi
3:00 pm68 °FLight rain. Scattered clouds.12 mph83%30.01 "HgN/A
2:30 pm70 °FScattered clouds.10 mph78%30.01 "HgN/A
2:00 pm70 °FScattered clouds.13 mph78%30.01 "HgN/A
1:30 pm70 °FScattered clouds.16 mph78%30.04 "HgN/A
1:00 pm72 °FScattered clouds.16 mph73%30.04 "HgN/A
12:30 pm70 °FScattered clouds.17 mph78%30.07 "HgN/A
12:00 pm72 °FScattered clouds.16 mph73%30.07 "HgN/A
11:30 am72 °FScattered clouds.16 mph73%30.07 "HgN/A
11:00 am70 °FScattered clouds.15 mph78%30.07 "HgN/A
10:30 am72 °FScattered clouds.20 mph78%30.07 "HgN/A
10:00 am72 °FScattered clouds.17 mph78%30.07 "HgN/A
9:30 am72 °FScattered clouds.18 mph83%30.07 "HgN/A
9:00 am70 °FScattered clouds.21 mph88%30.04 "HgN/A
8:30 am70 °FSprinkles. Scattered clouds.17 mph88%30.04 "HgN/A
8:00 am68 °FSprinkles. Scattered clouds.17 mph88%30.04 "HgN/A
7:30 am70 °FSprinkles. Scattered clouds.17 mph83%30.04 "HgN/A
7:00 am70 °FScattered clouds.17 mph83%30.01 "HgN/A
6:30 am70 °FSprinkles. Scattered clouds.16 mph88%30.01 "HgN/A
6:00 am70 °FSprinkles. Passing clouds.17 mph88%29.98 "HgN/A
5:30 am70 °FPassing clouds.20 mph88%29.98 "HgN/A
5:00 am70 °FPassing clouds.20 mph88%29.95 "HgN/A
4:30 am72 °FPassing clouds.20 mph88%29.95 "HgN/A
4:00 am72 °FPassing clouds.20 mph88%29.92 "Hg6 mi
3:30 am72 °FPassing clouds.17 mph88%29.92 "HgN/A
3:00 am73 °FPassing clouds.17 mph83%29.92 "HgN/A
2:30 am75 °FPassing clouds.15 mph83%29.92 "HgN/A
2:00 am75 °FPassing clouds.14 mph83%29.92 "HgN/A
1:30 am77 °FPassing clouds.8 mph89%29.95 "HgN/A
1:00 am79 °FPassing clouds.9 mph79%29.95 "HgN/A
12:30 am79 °FPassing clouds.13 mph79%29.95 "HgN/A
12:00 am79 °FPassing clouds.9 mph84%29.95 "HgN/A
11:30 pm
Fri, Mar 22
79 °FPassing clouds.12 mph84%29.95 "HgN/A
11:00 pm79 °FPassing clouds.13 mph84%29.95 "HgN/A
10:30 pm79 °FPassing clouds.10 mph84%29.92 "HgN/A
10:00 pm79 °FPassing clouds.5 mph79%29.92 "HgN/A
9:30 pm79 °FPassing clouds.9 mph79%29.89 "HgN/A
9:00 pm79 °FPassing clouds.10 mph84%29.89 "HgN/A
8:30 pm79 °FPassing clouds.12 mph79%29.89 "HgN/A
8:00 pm79 °FPassing clouds.12 mph79%29.86 "HgN/A
7:30 pm79 °FPassing clouds.10 mph84%29.86 "HgN/A
7:00 pm79 °FPassing clouds.8 mph84%29.86 "HgN/A
6:30 pm79 °FScattered clouds.9 mph84%29.86 "HgN/A
6:00 pm81 °FScattered clouds.9 mph74%29.83 "HgN/A
Weather by CustomWeather, © 2019

See weather overview